[[{"header":{"parameterUnit":"m.s-1","parameterCategory":1,"la1":30.2991,"la2":30.254,"lo1":-89.0895,"lo2":-89.0444,"dy":0.0017,"dx":0.0017,"nx":28,"ny":28,"refTime":"2024-02-15T09:00:00:Z","depth":0,"parameterNumber":2,"parameterNumberName":"U-component_of_WINDS"},"data":[0,0,0,0,0,0,0,0,0,0,0,0,0,0,0,0,0,0,0,0,0,0,0,0,0,0,0,0,0,0,0,0,0,0,0,0,0,0,0,0,0,0,0,0,0,0,0,0,0,0,0,0,0,0,0,0,0,0,0.8901,0.8901,0,0.889,0.8889,0.8889,0.8886,0.8886,0.8886,0.8886,0.8874,0.8874,0.8874,0,0,0,0,0,0,0,0,0,0,0,0,0,0.8918,0.8917,0.8901,0.8901,0.8901,0.889,0.8889,0.8889,0.8886,0.8886,0.8886,0.8886,0.8875,0.8874,0.8874,0,0,0,0,0,0,0,0,0,0,0,0,0,0.8909,0.8917,0.8901,0.8898,0.8897,0.889,0.8889,0.8889,0.8886,0.8886,0.8886,0.8886,0.8875,0.8874,0.8874,0.8868,0,0,0.8872,0.8872,0,0,0,0,0,0,0,0,0.8909,0.8908,0.8898,0.8898,0.8897,0.8889,0.8891,0.8882,0.8886,0.889,0.8886,0.8886,0.8879,0.8878,0.8876,0.8868,0.8867,0.8872,0.8871,0.8871,0.8871,0,0,0,0,0,0,0,0.891,0.8909,0.8896,0.8898,0.8898,0.8896,0.8895,0.8889,0.8884,0.889,0.889,0.8888,0.8879,0.8877,0.8876,0.8867,0.8872,0.8871,0.8871,0.8871,0.8852,0.8852,0,0,0,0,0,0,0.8911,0.8909,0.8897,0.8896,0.8904,0.8896,0.8894,0.8892,0.8884,0.8883,0.8888,0.8888,0.8878,0.8876,0.8875,0.8867,0.8871,0.8871,0.887,0.8852,0.8852,0.8852,0,0,0,0,0,0,0.8912,0.891,0.8897,0.8902,0.8901,0.8895,0.8892,0.8892,0.8889,0.8883,0.8882,0.8887,0.8878,0.8876,0.887,0.8867,0.887,0.887,0.8852,0.8852,0.8852,0.8852,0,0,0,0,0,0,0.8912,0.891,0.8909,0.8902,0.89,0.8892,0.8892,0.8891,0.8888,0.8888,0.8882,0.8881,0.8877,0.887,0.8869,0.8866,0.887,0.8852,0.8852,0.8852,0.8852,0.8852,0.8852,0,0,0,0,0,0.8913,0.891,0.8909,0.8907,0.8898,0.8892,0.8891,0.8888,0.8888,0.8886,0.8882,0.8881,0.8868,0.887,0.8868,0.8865,0.8853,0.8852,0.8852,0.8853,0.8852,0.8852,0,0,0,0,0,0,0.8916,0.8909,0.8908,0.8903,0.8898,0.8892,0.8889,0.8887,0.8882,0.8882,0.8878,0.8877,0.887,0.8867,0.887,0.8859,0.886,0.8859,0.8861,0.886,0.886,0.8861,0.8869,0,0,0,0,0,0.8916,0.8912,0.8906,0.8902,0.89,0.8895,0.8892,0.8889,0.8884,0.8882,0.8878,0.8873,0.8867,0.8864,0.8859,0.8852,0.885,0.8849,0.8848,0.8848,0.8847,0.8842,0.8841,0.885,0.885,0.885,0,0,0.8916,0.8912,0.891,0.8902,0.8898,0.8893,0.8893,0.8888,0.8884,0.8882,0.8875,0.8871,0.8865,0.8858,0.8855,0.8855,0.8844,0.8848,0.8847,0.8847,0.8841,0.8841,0.884,0.885,0.885,0.885,0,0,0.8914,0.8911,0.8907,0.8902,0.8896,0.8893,0.8892,0.8885,0.8882,0.8876,0.8873,0.8868,0.8859,0.8854,0.8851,0.8845,0.8843,0.8843,0.8841,0.8836,0.8835,0.8834,0.8831,0.883,0.8842,0.8842,0.8842,0,0.8915,0.8908,0.8904,0.8899,0.8895,0.8893,0.8887,0.8883,0.8876,0.8873,0.8874,0.8861,0.8857,0.8848,0.8846,0.8844,0.8841,0.8844,0.8835,0.8835,0.8834,0.8831,0.883,0.8842,0.8842,0.8842,0.8842,0,0.8909,0.8904,0.8901,0.8893,0.8889,0.8884,0.8879,0.8875,0.8873,0.8869,0.8861,0.8856,0.8848,0.8846,0.8844,0.8836,0.8836,0.8836,0.8837,0.8833,0.883,0.8829,0.8842,0.8842,0.8842,0.8842,0,0,0.8909,0.8899,0.8898,0.8893,0.8886,0.8881,0.8875,0.8868,0.8864,0.8859,0.8853,0.8845,0.8844,0.884,0.8837,0.8832,0.8826,0.8832,0.8832,0.883,0.8815,0.8815,0.8814,0.8825,0.8825,0.8824,0.8815,0,0.8905,0.8895,0.8891,0.8882,0.8877,0.8873,0.8867,0.8862,0.8857,0.8851,0.8847,0.884,0.8841,0.8838,0.8833,0.8828,0.8823,0.8828,0.8818,0.8818,0.8819,0.8812,0.8812,0.8804,0.8814,0.8814,0.8814,0,0.89,0.8894,0.8884,0.8876,0.8873,0.8869,0.8861,0.8855,0.8848,0.8845,0.884,0.8837,0.8829,0.8831,0.8819,0.8823,0.8819,0.8815,0.8815,0.8813,0.8815,0.8809,0.8801,0.88,0.8812,0.8812,0.8812,0,0.89,0.8889,0.8882,0.8878,0.8869,0.8865,0.8861,0.8853,0.8849,0.8842,0.8838,0.883,0.8826,0.8819,0.8814,0.8816,0.8803,0.8804,0.8799,0.8799,0.8796,0.8796,0.8787,0.8795,0.8795,0.8795,0.8795,0,0.8896,0.889,0.8881,0.8877,0.887,0.8864,0.8857,0.8852,0.8845,0.8839,0.8835,0.8829,0.8823,0.8816,0.8811,0.8802,0.88,0.8797,0.8795,0.8797,0.8797,0.8793,0.8793,0.8794,0.8795,0.8795,0.8795,0,0.8894,0.8889,0.888,0.8871,0.8868,0.8863,0.8855,0.885,0.8845,0.8837,0.8835,0.8827,0.8818,0.8812,0.8801,0.8797,0.8787,0.8786,0.8789,0.8788,0.8783,0.8783,0.877,0.8767,0.8778,0.8778,0.8778,0,0.8892,0.8887,0.8877,0.8872,0.8868,0.8861,0.8856,0.885,0.8844,0.8835,0.883,0.8821,0.8813,0.8799,0.8792,0.8783,0.8781,0.8777,0.878,0.878,0.878,0.878,0.8778,0.8776,0.8776,0.8776,0.8776,0,0.8888,0.8885,0.8878,0.8869,0.8863,0.8856,0.8849,0.8845,0.8837,0.8831,0.8822,0.8816,0.8804,0.8794,0.8784,0.8779,0.8776,0.8775,0.8773,0.8774,0.8776,0.8774,0.8787,0.8776,0.8776,0.8776,0.8776,0.8776,0.8885,0.888,0.8872,0.8863,0.8857,0.885,0.8844,0.8838,0.883,0.882,0.8816,0.8806,0.8797,0.8783,0.8777,0.8769,0.8769,0.8767,0.8766,0.8765,0.8764,0.8778,0.8767,0.8767,0.8767,0.8767,0.8767,0,0.888,0.8874,0.8866,0.8856,0.8849,0.8847,0.8838,0.8832,0.8823,0.8815,0.8807,0.8795,0.8786,0.8777,0.8767,0.8761,0.8759,0.8758,0.8758,0.8757,0.8766,0.8768,0.876,0.876,0.876,0.876,0.876,0.876,0.8876,0.8867,0.8863,0.885,0.8843,0.8834,0.8829,0.8821,0.8815,0.8802,0.8793,0.8788,0.8779,0.8767,0.8758,0.8755,0.8751,0.875,0.8748,0.8756,0.8757,0.8757,0.8759,0.875,0.875,0.8739,0.8739,0.8739]},{"header":{"parameterUnit":"m.s-1","parameterCategory":1,"la1":30.2991,"la2":30.254,"lo1":-89.0895,"lo2":-89.0444,"dy":0.0017,"dx":0.0017,"nx":28,"ny":28,"refTime":"2024-02-15T09:00:00:Z","depth":0,"parameterNumber":3,"parameterNumberName":"V-component_of_WINDS"},"data":[0,0,0,0,0,0,0,0,0,0,0,0,0,0,0,0,0,0,0,0,0,0,0,0,0,0,0,0,0,0,0,0,0,0,0,0,0,0,0,0,0,0,0,0,0,0,0,0,0,0,0,0,0,0,0,0,0,0,1.9961,1.9962,0,2.0063,2.0064,2.0065,2.009,2.0089,2.0088,2.0088,2.019,2.0193,2.0196,0,0,0,0,0,0,0,0,0,0,0,0,0,1.9787,1.979,1.9961,1.9963,1.9964,2.0062,2.0064,2.0065,2.009,2.0089,2.0088,2.0087,2.0189,2.0193,2.0197,0,0,0,0,0,0,0,0,0,0,0,0,0,1.9873,1.9792,1.9961,1.9988,1.9991,2.0062,2.0064,2.0065,2.009,2.0089,2.0088,2.0087,2.0187,2.0192,2.0197,2.0248,0,0,2.0212,2.0214,0,0,0,0,0,0,0,0,1.9868,1.9879,1.9983,1.9986,1.999,2.0063,2.004,2.0126,2.009,2.0052,2.0088,2.0087,2.0148,2.0156,2.0177,2.0252,2.0257,2.0213,2.0216,2.0218,2.0219,0,0,0,0,0,0,0,1.9862,1.9875,2.0001,1.9984,1.9989,1.9994,2.0006,2.0056,2.0104,2.0056,2.0058,2.0069,2.015,2.0172,2.018,2.0258,2.0213,2.0217,2.022,2.0222,2.0379,2.038,0,0,0,0,0,0,1.9852,1.987,1.9998,2.0004,1.9926,1.9998,2.0011,2.004,2.0104,2.0113,2.007,2.007,2.0164,2.0174,2.0184,2.0246,2.0218,2.0223,2.0225,2.0378,2.0379,2.038,0,0,0,0,0,0,1.9848,1.9863,1.9994,1.9938,1.9955,2.0002,2.0035,2.0043,2.0065,2.0115,2.0124,2.0085,2.0164,2.0177,2.0231,2.025,2.0225,2.0229,2.0376,2.0378,2.038,2.0373,0,0,0,0,0,0,1.9843,1.9862,1.9882,1.9938,1.9958,2.0041,2.0037,2.0045,2.0074,2.0075,2.0131,2.0139,2.0164,2.0224,2.0236,2.0257,2.0233,2.0375,2.0377,2.0379,2.0371,2.0374,2.0376,0,0,0,0,0,1.9837,1.9876,1.9883,1.9898,1.9984,2.0042,2.0053,2.0082,2.0076,2.0096,2.0128,2.0137,2.0246,2.0229,2.0244,2.0266,2.0374,2.0376,2.0379,2.037,2.0373,2.0376,0,0,0,0,0,0,1.982,1.9883,1.9892,1.9951,1.9991,2.0046,2.0073,2.0084,2.0127,2.0126,2.0159,2.0171,2.0224,2.025,2.023,2.0317,2.031,2.0315,2.0298,2.0302,2.0304,2.0296,2.0237,0,0,0,0,0,1.9823,1.9865,1.9918,1.9964,1.9984,2.0025,2.0051,2.007,2.0112,2.0129,2.0165,2.0206,2.0249,2.0277,2.0319,2.0375,2.0387,2.0397,2.04,2.0401,2.0406,2.0437,2.0442,2.0389,2.0389,2.0389,0,0,1.983,1.987,1.9894,1.9962,1.9995,2.0037,2.0039,2.0084,2.0115,2.0136,2.019,2.0217,2.0265,2.032,2.0346,2.0344,2.0423,2.0405,2.0406,2.0409,2.044,2.0445,2.0449,2.0391,2.039,2.039,0,0,1.9864,1.9898,1.9941,1.9974,2.0024,2.0051,2.0061,2.0115,2.0134,2.0189,2.0205,2.0242,2.0317,2.0349,2.0376,2.0421,2.0431,2.0434,2.0446,2.0476,2.048,2.0484,2.05,2.0505,2.0438,2.0438,2.0438,0,1.9866,1.993,1.9961,2.0005,2.0034,2.0055,2.0097,2.0128,2.0189,2.0208,2.0205,2.0298,2.0331,2.0394,2.0405,2.0426,2.0438,2.0428,2.0477,2.0481,2.0485,2.0501,2.0507,2.0438,2.0438,2.0438,2.0438,0,1.993,1.9974,2.0002,2.0062,2.0094,2.0137,2.0173,2.0201,2.0217,2.0244,2.0299,2.0339,2.039,2.0407,2.0422,2.0472,2.0469,2.0471,2.0464,2.049,2.0505,2.0511,2.0438,2.0438,2.0438,2.0438,0,0,1.9956,2.0032,2.0041,2.0068,2.0125,2.016,2.0203,2.0253,2.0277,2.0318,2.0355,2.0417,2.0419,2.0449,2.0469,2.0495,2.0527,2.0494,2.0495,2.0498,2.0584,2.0581,2.0588,2.0534,2.0536,2.0537,2.0579,0,1.9997,2.0076,2.0104,2.0169,2.021,2.023,2.0268,2.0306,2.0332,2.037,2.0399,2.0442,2.0442,2.046,2.0487,2.0518,2.0545,2.0515,2.0568,2.057,2.0556,2.0596,2.0594,2.0632,2.0585,2.0587,2.0587,0,2.0055,2.0098,2.0167,2.0218,2.0236,2.027,2.0317,2.0354,2.0398,2.0414,2.0448,2.0465,2.051,2.05,2.0563,2.0542,2.0565,2.0584,2.0586,2.0592,2.058,2.0602,2.0646,2.0651,2.0597,2.0596,2.0595,0,2.0067,2.0141,2.0192,2.0214,2.0276,2.0298,2.0325,2.0368,2.0396,2.0438,2.0456,2.0502,2.0527,2.0562,2.0591,2.0582,2.0651,2.0644,2.0666,2.0665,2.0679,2.0678,2.0727,2.0695,2.0695,2.0695,2.0694,0,2.0109,2.015,2.0198,2.0229,2.0276,2.0307,2.0352,2.038,2.0417,2.0454,2.0474,2.0507,2.0544,2.0582,2.0605,2.0653,2.0664,2.0679,2.0684,2.0677,2.0675,2.0692,2.069,2.0696,2.0696,2.0696,2.0695,0,2.013,2.0164,2.022,2.0274,2.0288,2.032,2.0365,2.0395,2.0422,2.0468,2.048,2.0522,2.0567,2.06,2.0659,2.0674,2.0725,2.0731,2.0711,2.0714,2.0734,2.0731,2.0795,2.0805,2.0766,2.0767,2.0767,0,2.0155,2.0187,2.0244,2.027,2.0296,2.0338,2.0367,2.0398,2.0428,2.0479,2.0504,2.0551,2.059,2.0662,2.0697,2.0742,2.0748,2.0768,2.0755,2.0747,2.0748,2.0746,2.0749,2.0769,2.077,2.077,2.077,0,2.0195,2.021,2.0251,2.0298,2.0332,2.037,2.0409,2.0428,2.0467,2.0499,2.0546,2.0576,2.0636,2.0683,2.0731,2.0757,2.077,2.0774,2.0781,2.0774,2.0761,2.0767,2.0715,2.0772,2.0772,2.0772,2.0772,2.0772,2.0218,2.0248,2.0292,2.0337,2.0369,2.0405,2.0436,2.0466,2.0506,2.0558,2.0574,2.0623,2.0665,2.0731,2.0758,2.0796,2.0795,2.0806,2.0809,2.0811,2.081,2.0755,2.0805,2.0805,2.0805,2.0805,2.0805,0,2.0259,2.0288,2.0329,2.0383,2.0418,2.0427,2.047,2.0498,2.0541,2.058,2.0618,2.0672,2.0717,2.0755,2.0801,2.0824,2.0831,2.0835,2.0834,2.084,2.0809,2.0798,2.0829,2.0829,2.0829,2.0829,2.0829,2.0829,2.0284,2.0334,2.0354,2.042,2.0449,2.0497,2.0521,2.0553,2.0584,2.0644,2.0681,2.0706,2.0744,2.0793,2.0835,2.0845,2.0861,2.0863,2.0875,2.0845,2.0842,2.0839,2.0829,2.0867,2.0867,2.0902,2.0903,2.0903]}]]